Location: ???????
(56.2167°N, 38.0500°E)
Time: 06:54:42
(UTC+00:00)

NOSS 3-2 (C) - Pass Details

Date: 19 May 2025
Orbit: 686 x 1523 km, 63.4° (Epoch: 04 June)

Event Time Altitude Azimuth Distance (km) Brightness Sun altitude
Rises 21:07:08 0° 301° (WNW) 3,612 7.0 -13.7°
Reaches altitude 10° 21:09:31 10° 304° (NW) 2,773 6.4 -13.8°
Maximum altitude 21:16:07 65° 27° (NNE) 1,263 4.3 -13.8°
Drops below altitude 10° 21:24:15 10° 109° (ESE) 3,382 6.1 -13.8°
Sets 21:27:25 0° 113° (ESE) 4,454 6.7 -13.8°
